EW8926 Weather Reports


Display with metric or nautical units.
time (UTC)temp
F
wind
direction
speed
MPH
gust
MPH
rain 1hr
in
rain 24hr
in
rain mn
in
humidity
%
barometer
mb
20260903170604 88 352 0.0 1.0 0.00 0.00 0.00 38 1018.3
20260903165603 88 352 0.0 1.0 0.00 0.00 0.00 38 1018.3
20260903165104 89 352 0.0 0.0 0.00 0.00 0.00 38 1018.2
20260903164604 89 352 0.0 2.0 0.00 0.00 0.00 39 1018.2
20260903164103 89 352 1.0 1.0 0.00 0.00 0.00 39 1018.2
20260903163104 90 352 1.0 3.0 0.00 0.00 0.00 37 1018.1
20260903162604 90 352 1.0 3.0 0.00 0.00 0.00 37 1018.1
20260903162104 90 353 2.0 3.0 0.00 0.00 0.00 36 1018.1
20260903161604 91 352 2.0 3.0 0.00 0.00 0.00 37 1018.1
20260903161105 91 355 2.0 5.0 0.00 0.00 0.00 36 1018.1
20260903160605 92 14 2.0 2.0 0.00 0.00 0.00 36 1018.2
20260903155604 93 5 2.0 5.0 0.00 0.00 0.00 35 1018.2
20260903154604 93 353 2.0 5.0 0.00 0.00 0.00 35 1018.3
20260903154104 93 353 1.0 5.0 0.00 0.00 0.00 35 1018.3
20260903153604 93 29 1.0 2.0 0.00 0.00 0.00 36 1018.4
20260903153104 92 34 2.0 2.0 0.00 0.00 0.00 36 1018.4
20260903152604 93 34 2.0 3.0 0.00 0.00 0.00 36 1018.4
20260903152104 92 321 2.0 3.0 0.00 0.00 0.00 36 1018.4
20260903151604 92 352 2.0 5.0 0.00 0.00 0.00 37 1018.4
20260903151105 92 172 2.0 3.0 0.00 0.00 0.00 37 1018.4
20260903150105 92 147 2.0 5.0 0.00 0.00 0.00 37 1018.6
20260903145610 92 344 2.0 5.0 0.00 0.00 0.00 36 1018.6
20260903145105 93 338 2.0 7.0 0.00 0.00 0.00 37 1018.7
20260903144604 92 8 2.0 7.0 0.00 0.00 0.00 36 1018.7
20260903144104 92 2 2.0 3.0 0.00 0.00 0.00 38 1018.7
20260903142104 92 10 2.0 5.0 0.00 0.00 0.00 39 1019.1
20260903141604 92 291 2.0 5.0 0.00 0.00 0.00 38 1019.1
20260903141105 92 340 2.0 3.0 0.00 0.00 0.00 38 1019.1
20260903140605 92 30 2.0 3.0 0.00 0.00 0.00 39 1019.3
20260903140104 92 7 2.0 5.0 0.00 0.00 0.00 39 1019.3
20260903135604 91 110 2.0 5.0 0.00 0.00 0.00 40 1019.3
20260903135104 91 112 2.0 7.0 0.00 0.00 0.00 39 1019.3
20260903134604 91 155 2.0 6.0 0.00 0.00 0.00 39 1019.3
20260903134104 91 187 2.0 5.0 0.00 0.00 0.00 39 1019.3
20260903133603 91 171 2.0 5.0 0.00 0.00 0.00 39 1019.4
20260903133104 91 119 2.0 5.0 0.00 0.00 0.00 40 1019.4
20260903132604 91 180 2.0 3.0 0.00 0.00 0.00 40 1019.4
20260903132104 91 345 2.0 5.0 0.00 0.00 0.00 39 1019.6
20260903131104 91 347 2.0 5.0 0.00 0.00 0.00 41 1019.6
20260903130604 91 341 2.0 6.0 0.00 0.00 0.00 41 1019.6
20260903130104 91 339 2.0 5.0 0.00 0.00 0.00 40 1019.6
20260903125605 91 131 2.0 5.0 0.00 0.00 0.00 40 1019.6
20260903125104 91 45 2.0 5.0 0.00 0.00 0.00 40 1019.6
20260903124105 90 85 2.0 5.0 0.00 0.00 0.00 42 1019.6
20260903123604 90 176 2.0 5.0 0.00 0.00 0.00 41 1019.7
20260903123104 90 11 2.0 5.0 0.00 0.00 0.00 42 1019.7
20260903122604 90 198 2.0 5.0 0.00 0.00 0.00 41 1019.7
20260903121104 89 23 2.0 5.0 0.00 0.00 0.00 42 1019.7
20260903120604 89 184 2.0 5.0 0.00 0.00 0.00 43 1019.8
20260903120104 89 243 3.0 6.0 0.00 0.00 0.00 43 1019.8
20260903115604 89 161 3.0 3.0 0.00 0.00 0.00 43 1019.8
20260903115104 89 1 2.0 7.0 0.00 0.00 0.00 42 1019.8
20260903114604 89 350 2.0 6.0 0.00 0.00 0.00 43 1019.8
20260903114104 89 108 2.0 6.0 0.00 0.00 0.00 44 1019.8
20260903112603 88 152 2.0 5.0 0.00 0.00 0.00 46 1020.1
20260903112104 88 149 2.0 6.0 0.00 0.00 0.00 46 1020.5
20260903111604 88 343 2.0 5.0 0.00 0.00 0.00 47 1020.5
20260903111103 87 349 2.0 6.0 0.00 0.00 0.00 48 1020.5
20260903110604 87 82 2.0 5.0 0.00 0.00 0.00 49 1020.5
20260903110105 87 101 2.0 5.0 0.00 0.00 0.00 48 1020.5
20260903105604 87 13 2.0 5.0 0.00 0.00 0.00 49 1020.5
20260903105104 87 351 2.0 5.0 0.00 0.00 0.00 50 1020.7
20260903104604 87 351 2.0 5.0 0.00 0.00 0.00 50 1020.7
20260903104105 86 87 2.0 3.0 0.00 0.00 0.00 52 1020.7
20260903103604 86 350 2.0 5.0 0.00 0.00 0.00 52 1020.8
20260903103105 86 184 2.0 5.0 0.00 0.00 0.00 54 1020.8
20260903102605 86 39 2.0 5.0 0.00 0.00 0.00 54 1020.8
20260903102105 85 2 2.0 3.0 0.00 0.00 0.00 56 1020.9
20260903101104 85 2 2.0 3.0 0.00 0.00 0.00 56 1020.9
20260903100605 85 143 2.0 5.0 0.00 0.00 0.00 57 1021.2
20260903100105 85 337 2.0 3.0 0.00 0.00 0.00 57 1021.2
20260903095604 84 347 2.0 5.0 0.00 0.00 0.00 57 1021.2
20260903094104 83 332 2.0 2.0 0.00 0.00 0.00 62 1021.3
20260903093605 83 332 2.0 2.0 0.00 0.00 0.00 62 1021.3
20260903093104 83 332 2.0 2.0 0.00 0.00 0.00 62 1021.3
20260903092604 82 215 0.0 0.0 0.00 0.00 0.00 64 1021.3
20260903092106 82 215 0.0 0.0 0.00 0.00 0.00 64 1021.5
20260903091605 82 215 0.0 6.0 0.00 0.00 0.00 64 1021.5
20260903091105 82 2 2.0 6.0 0.00 0.00 0.00 64 1021.5
20260903090604 82 347 2.0 5.0 0.00 0.00 0.00 65 1021.5
20260903090104 81 200 2.0 3.0 0.00 0.00 0.00 66 1021.5
20260903085604 81 355 2.0 5.0 0.00 0.00 0.00 65 1021.5
20260903084604 82 356 2.0 5.0 0.00 0.00 0.00 65 1021.5
20260903084105 81 249 2.0 5.0 0.00 0.00 0.00 65 1021.5
20260903083604 81 305 2.0 3.0 0.00 0.00 0.00 66 1021.4
20260903083104 80 256 2.0 5.0 0.00 0.00 0.00 67 1021.4
20260903082104 80 353 2.0 5.0 0.00 0.00 0.00 67 1021.2
20260903081604 79 345 2.0 5.0 0.00 0.00 0.00 67 1021.2
20260903080604 78 0 2.0 3.0 0.00 0.00 0.00 70 1021.2
20260903080104 78 351 2.0 3.0 0.00 0.00 0.00 70 1021.2
20260903075605 78 349 2.0 5.0 0.00 0.00 0.00 71 1021.2
20260903074604 77 18 2.0 5.0 0.00 0.00 0.00 72 1021.1
20260903073604 76 347 2.0 5.0 0.00 0.00 0.00 73 1021.1
20260903073104 76 347 2.0 5.0 0.00 0.00 0.00 73 1021.1
20260903071604 76 342 2.0 6.0 0.00 0.00 0.00 71 1021.0
20260903070604 77 343 1.0 3.0 0.00 0.00 0.00 72 1020.8
20260903070104 76 342 1.0 2.0 0.00 0.00 0.00 73 1020.8
20260903065604 76 342 1.0 3.0 0.00 0.00 0.00 73 1020.8
20260903065104 75 342 0.0 3.0 0.00 0.00 0.00 74 1020.8
20260903064603 74 204 0.0 3.0 0.00 0.00 0.00 75 1020.8
20260903063604 72 203 1.0 2.0 0.00 0.00 0.00 78 1020.6
20260903063104 71 203 2.0 2.0 0.00 0.00 0.00 80 1020.6
20260903062604 70 203 2.0 2.0 0.00 0.00 0.00 81 1020.6
20260903062103 69 203 1.0 2.0 0.00 0.00 0.00 82 1020.5
20260903061604 69 348 1.0 2.0 0.00 0.00 0.00 82 1020.5
20260903061103 69 348 1.0 2.0 0.00 0.00 0.00 82 1020.5
20260903060104 68 348 1.0 2.0 0.00 0.00 0.00 84 1020.4
20260903055603 68 326 1.0 3.0 0.00 0.00 0.00 84 1020.4
20260903055104 67 326 0.0 2.0 0.00 0.00 0.00 84 1020.3
20260903054603 67 325 0.0 2.0 0.00 0.00 0.00 84 1020.3
20260903054104 67 325 1.0 2.0 0.00 0.00 0.00 85 1020.3
20260903053604 67 325 1.0 2.0 0.00 0.00 0.00 85 1020.1
20260903052604 66 325 1.0 2.0 0.00 0.00 0.00 85 1020.1
20260903052104 66 325 1.0 2.0 0.00 0.00 0.00 85 1019.8
20260903051104 66 325 2.0 2.0 0.00 0.00 0.00 85 1019.8
20260903050604 66 325 2.0 2.0 0.00 0.00 0.00 85 1019.8
20260903050104 66 325 2.0 3.0 0.00 0.00 0.00 86 1019.8
20260903045103 66 343 2.0 3.0 0.00 0.00 0.00 86 1019.7
20260903044604 66 354 2.0 2.0 0.00 0.00 0.00 86 1019.7
20260903044104 66 333 1.0 3.0 0.00 0.00 0.00 86 1019.7
20260903043603 66 354 1.0 2.0 0.00 0.00 0.00 86 1019.5
20260903042604 67 358 0.0 2.0 0.00 0.00 0.00 87 1019.5
20260903042104 67 359 0.0 1.0 0.00 0.00 0.00 87 1019.6
20260903041604 67 359 0.0 2.0 0.00 0.00 0.00 88 1019.6
20260903041104 67 359 2.0 0.0 0.00 0.00 0.00 87 1019.6
20260903035604 67 359 1.0 3.0 0.00 0.00 0.00 87 1019.6
20260903035104 67 359 1.0 2.0 0.00 0.00 0.00 86 1019.6
20260903034604 67 359 1.0 2.0 0.00 0.00 0.00 86 1019.6
20260903034104 67 359 0.0 2.0 0.00 0.00 0.00 86 1019.6
20260903033604 67 359 0.0 2.0 0.00 0.00 0.00 86 1019.5
20260903032604 67 359 1.0 2.0 0.00 0.00 0.00 86 1019.5
20260903032104 67 359 1.0 2.0 0.00 0.00 0.00 86 1019.5
20260903031604 67 359 1.0 2.0 0.00 0.00 0.00 86 1019.5
20260903031104 67 359 1.0 2.0 0.00 0.00 0.00 86 1019.5
20260903030604 67 353 1.0 2.0 0.00 0.00 0.00 87 1019.4
20260903030104 67 340 2.0 2.0 0.00 0.00 0.00 87 1019.4
20260903025603 67 340 2.0 2.0 0.00 0.00 0.00 87 1019.4
20260903025104 68 341 0.0 2.0 0.00 0.00 0.00 87 1019.4
20260903024604 68 341 0.0 3.0 0.00 0.00 0.00 87 1019.4
20260903023604 68 341 1.0 2.0 0.00 0.00 0.00 87 1019.5
20260903023104 68 341 0.0 2.0 0.00 0.00 0.00 87 1019.5
20260903022603 68 341 0.0 2.0 0.00 0.00 0.00 87 1019.5
20260903021604 68 341 1.0 2.0 0.00 0.00 0.00 87 1019.5
20260903021104 68 341 0.0 2.0 0.00 0.00 0.00 87 1019.5
20260903020604 68 341 0.0 2.0 0.00 0.00 0.00 87 1019.6
20260903020104 69 342 1.0 3.0 0.00 0.00 0.00 88 1019.6
20260903015604 69 342 1.0 2.0 0.00 0.00 0.00 87 1019.6
20260903015104 69 342 1.0 0.0 0.00 0.00 0.00 87 1019.6
20260903014604 69 342 1.0 2.0 0.00 0.00 0.00 87 1019.6
20260903014104 69 342 1.0 2.0 0.00 0.00 0.00 88 1019.6
20260903013604 69 342 1.0 2.0 0.00 0.00 0.00 87 1019.5
20260903013103 69 342 2.0 2.0 0.00 0.00 0.00 87 1019.5
20260903012104 70 342 1.0 2.0 0.00 0.00 0.00 88 1019.6
20260903011604 70 344 1.0 3.0 0.00 0.00 0.00 87 1019.6
20260903011103 70 354 0.0 2.0 0.00 0.00 0.00 87 1019.6
20260903010604 70 354 0.0 2.0 0.00 0.00 0.00 87 1019.4
20260903010104 70 354 1.0 2.0 0.00 0.00 0.00 87 1019.4
20260903005604 70 354 1.0 1.0 0.00 0.00 0.00 86 1019.4
20260903005104 70 354 1.0 2.0 0.00 0.00 0.00 86 1019.3
20260903004604 70 354 1.0 2.0 0.00 0.00 0.00 86 1019.3
20260903004104 70 354 1.0 2.0 0.00 0.00 0.00 86 1019.3
20260903003604 70 354 1.0 2.0 0.00 0.00 0.00 86 1019.4
20260903002104 71 354 0.0 2.0 0.00 0.00 0.00 86 1019.4
20260903001604 71 354 0.0 2.0 0.00 0.00 0.00 86 1019.4
20260903001104 71 354 0.0 2.0 0.00 0.00 0.00 86 1019.4
20260903000603 71 354 0.0 2.0 0.00 0.00 0.00 86 1019.3
20260903000104 71 354 0.0 1.0 0.00 0.00 0.00 86 1019.3
20260902235603 71 354 0.0 2.0 0.00 0.00 0.00 86 1019.3
20260902235103 71 354 0.0 2.0 0.00 0.00 0.00 86 1019.3
20260902234604 71 354 0.0 0.0 0.00 0.00 0.00 85 1019.3
20260902234103 71 354 0.0 0.0 0.00 0.00 0.00 85 1019.3
20260902233604 72 354 0.0 0.0 0.00 0.00 0.00 85 1019.2
20260902233104 72 354 1.0 0.0 0.00 0.00 0.00 85 1019.2
20260902232604 72 354 1.0 2.0 0.00 0.00 0.00 85 1019.2
20260902231604 71 354 0.0 2.0 0.00 0.00 0.00 85 1019.2
20260902231104 71 354 0.0 2.0 0.00 0.00 0.00 85 1019.2
20260902230604 71 354 0.0 2.0 0.00 0.00 0.00 85 1019.1
20260902230104 71 354 1.0 2.0 0.00 0.00 0.00 85 1019.1
20260902225604 71 354 1.0 2.0 0.00 0.00 0.00 85 1019.1
20260902224103 71 325 1.0 2.0 0.00 0.00 0.00 85 1019.1
20260902223604 71 325 1.0 2.0 0.00 0.00 0.00 85 1019.1
20260902223104 71 325 0.0 2.0 0.00 0.00 0.00 85 1019.1
20260902222604 71 325 0.0 2.0 0.00 0.00 0.00 85 1019.1
20260902222104 71 325 1.0 2.0 0.00 0.00 0.00 85 1019.1
20260902221604 71 325 1.0 0.0 0.00 0.00 0.00 83 1019.1
20260902221104 72 325 0.0 2.0 0.00 0.00 0.00 83 1019.1
20260902220605 72 325 0.0 2.0 0.00 0.00 0.00 83 1019.2
20260902220104 72 325 2.0 2.0 0.00 0.00 0.00 83 1019.2
20260902215604 72 325 2.0 0.0 0.00 0.00 0.00 82 1019.2
20260902215104 73 325 1.0 2.0 0.00 0.00 0.00 81 1019.2
20260902214604 73 325 0.0 3.0 0.00 0.00 0.00 81 1019.2
20260902213604 73 325 0.0 2.0 0.00 0.00 0.00 81 1019.1
20260902213104 74 325 0.0 2.0 0.00 0.00 0.00 80 1019.1
20260902211604 74 325 0.0 2.0 0.00 0.00 0.00 80 1019.0
20260902211104 74 325 0.0 2.0 0.00 0.00 0.00 80 1019.0
20260902210605 74 325 0.0 1.0 0.00 0.00 0.00 80 1018.9
20260902210105 75 325 0.0 0.0 0.00 0.00 0.00 80 1018.9
20260902205604 75 325 0.0 0.0 0.00 0.00 0.00 79 1018.9
20260902204104 75 325 2.0 2.0 0.00 0.00 0.00 79 1018.7
20260902203604 75 325 2.0 2.0 0.00 0.00 0.00 79 1018.7
20260902203103 75 320 1.0 3.0 0.00 0.00 0.00 79 1018.7
20260902202604 76 351 1.0 3.0 0.00 0.00 0.00 79 1018.7
20260902202104 76 353 0.0 2.0 0.00 0.00 0.00 79 1018.5
20260902201604 76 355 0.0 2.0 0.00 0.00 0.00 78 1018.5
20260902201104 76 355 0.0 2.0 0.00 0.00 0.00 78 1018.5
20260902200604 76 355 0.0 1.0 0.00 0.00 0.00 77 1018.5
20260902200104 76 355 2.0 3.0 0.00 0.00 0.00 77 1018.5
20260902195604 76 355 2.0 2.0 0.00 0.00 0.00 76 1018.5
20260902195104 76 271 1.0 3.0 0.00 0.00 0.00 76 1018.4
20260902194604 76 326 1.0 3.0 0.00 0.00 0.00 75 1018.4
20260902194104 77 311 1.0 2.0 0.00 0.00 0.00 74 1018.4
20260902193604 77 311 1.0 2.0 0.00 0.00 0.00 73 1018.3
20260902193103 77 311 0.0 3.0 0.00 0.00 0.00 73 1018.3
20260902192604 77 356 0.0 3.0 0.00 0.00 0.00 72 1018.3
20260902191603 78 2 2.0 2.0 0.00 0.00 0.00 72 1018.2
20260902191104 78 2 2.0 2.0 0.00 0.00 0.00 71 1018.2
20260902190604 78 298 2.0 3.0 0.00 0.00 0.00 70 1018.0
20260902190104 78 322 2.0 3.0 0.00 0.00 0.00 69 1018.0
20260902185604 78 343 2.0 5.0 0.00 0.00 0.00 69 1018.0
20260902184604 79 307 2.0 5.0 0.00 0.00 0.00 67 1017.9
20260902184104 79 328 2.0 3.0 0.00 0.00 0.00 66 1017.9
20260902183604 79 301 2.0 2.0 0.00 0.00 0.00 65 1017.8
20260902183104 79 301 2.0 5.0 0.00 0.00 0.00 65 1017.8
20260902182604 80 308 2.0 5.0 0.00 0.00 0.00 64 1017.8
20260902182103 80 4 2.0 6.0 0.00 0.00 0.00 63 1017.6
20260902181603 80 316 2.0 6.0 0.00 0.00 0.00 62 1017.6
20260902181104 81 323 3.0 5.0 0.00 0.00 0.00 61 1017.6
20260902180603 81 320 3.0 6.0 0.00 0.00 0.00 60 1017.5
20260902180104 81 330 3.0 6.0 0.00 0.00 0.00 59 1017.5
20260902175603 82 325 3.0 7.0 0.00 0.00 0.00 59 1017.5
20260902175104 82 341 3.0 7.0 0.00 0.00 0.00 58 1017.4
20260902174604 82 343 3.0 8.0 0.00 0.00 0.00 57 1017.4
20260902174103 83 327 3.0 6.0 0.00 0.00 0.00 57 1017.4
20260902173104 84 339 3.0 7.0 0.00 0.00 0.00 56 1017.2
20260902172104 84 346 3.0 6.0 0.00 0.00 0.00 55 1017.2
20260902171604 85 333 2.0 6.0 0.00 0.00 0.00 54 1017.2
20260902171104 85 318 3.0 5.0 0.00 0.00 0.00 54 1017.2